Regional Weather Roundup
Issued by NWS

Home | Current Version | Previous Version | Graphics & Text | Print | Product List | Glossary On
Versions: 1 2 3 4 5 6 7 8 9 10 11 12 13 14 15 16 17 18 19 20 21 22 23 24 25 26 27 28 29 30 31 32 33 34 35 36 37 38 39 40 41 42 43 44 45 46 47 48 49 50
000
ASUS43 KIND 232059
RWRIN

WEATHER ROUNDUP FOR INDIANA
NATIONAL WEATHER SERVICE INDIANAPOLIS IN
500 PM EDT SAT JUL 23 2016

NOTE: "FAIR" INDICATES FEW OR NO CLOUDS BELOW 12,000 FEET WITH NO
SIGNIFICANT WEATHER AND/OR OBSTRUCTIONS TO VISIBILITY.

* - STATION DOES NOT REPORT WEATHER SUCH AS PRECIPITATION OR FOG.

+ - STATION NOT QUALITY CONTROLLED BY THE NATIONAL WEATHER SERVICE.
    USE DATA WITH CAUTION...ESPECIALLY DEWPOINT AND RELATIVE
    HUMIDITY OBSERVATIONS.

INZ001>003-010>013-019-020-232200-
NORTHWEST INDIANA

CITY           SKY/WX    TMP DP  RH WIND       PRES   REMARKS
GARY /AIRPORT/ PTSUNNY   91 N/A N/A S5        29.94F
KNOX *+        CLOUDY    88  68  51 SW7       29.96F
MONTICELLO +   CLOUDY    89  72  57 SW5       29.97S HX  95
RENSSELAER +   CLOUDY    88  79  74 S7        29.96F HX 102

$$

LMZ046-743>745-232200-
SOUTHERN LAKE MICHIGAN

STATION/POSITION TIME  TEMP    WIND        PRES    WAVE
                       AIR SEA DIR/SP/G            HT
                 (UTC) (F)     (DEG/KT/KT) (MB)    (FT)
BURNS HARBOR     2000   82      70/  6/  7 1014.9F
MICHIGAN CITY    2000   80      10/  7/  7   N/A
5NW MICH CITY    2000   81 79   60/  2/  2   N/A     1

$$

INZ004-005-014>016-021>024-232200-
NORTH CENTRAL INDIANA

CITY           SKY/WX    TMP DP  RH WIND       PRES   REMARKS
ELKHART        PTSUNNY   91  75  59 SE6       29.97F HX 102
SOUTH BEND     CLOUDY    90  75  61 W5        29.96F HX 100
WARSAW +       MOSUNNY   88  72  58 CALM      29.97S

$$

INZ006>009-017-018-025>027-232200-
NORTHEAST INDIANA

CITY           SKY/WX    TMP DP  RH WIND       PRES   REMARKS
ANGOLA *+        N/A     90  84  84 N6        29.98F HX 115
FORT WAYNE     PTSUNNY   91  72  53 W6        29.97F HX  98

$$

INZ028-029-035-036-043>045-051>053-232200-
WEST CENTRAL INDIANA

CITY           SKY/WX    TMP DP  RH WIND       PRES   REMARKS
CRAWFORDSVL +  MOSUNNY   86  76  71 CALM      29.99F HX  95
GREENCASTLE +  PTSUNNY   86  79  79 CALM      30.00F HX  99
LAFAYETTE      MOSUNNY   89  75  63 SW6       29.96F HX  99
TERRE HAUTE    MOSUNNY   89  72  56 SE6       29.98F HX  96

$$

INZ030>032-037>040-046>048-054>057-064-065-232200-
CENTRAL INDIANA

CITY           SKY/WX    TMP DP  RH WIND       PRES   REMARKS
FRANKFORT +    MOSUNNY   92  76  59 W3        30.01F HX 104
INDIANAPOLIS   PTSUNNY   90  73  57 W3        29.99F HX  98
-EAGLE CREEK   SUNNY     90  73  57 NW6       29.98F HX  98
KOKOMO *+      MOSUNNY   90  73  58 S6        29.97F HX  98
MT COMFORT *+  MOSUNNY   88  77  70 SE3       29.99F HX 100
SHELBYVILLE    SUNNY     90  73  57 SW9       29.98F HX  98
ZIONSVILLE +   MOSUNNY   87  74  65 CALM      29.99F HX  96

$$

INZ033-034-041-042-049-050-058-059-232200-
EAST CENTRAL INDIANA

CITY           SKY/WX    TMP DP  RH WIND       PRES   REMARKS
MUNCIE         SUNNY     91  73  55 NW6       29.99F HX  99

$$

INZ060-061-067>069-081>083-085>088-232200-
SOUTHWEST INDIANA

CITY           SKY/WX    TMP DP  RH WIND       PRES   REMARKS
EVANSVILLE     PTSUNNY   92  77  61 E5        29.96F HX 105
HUNTINGBURG *+ SUNNY     91  75  59 SW3       29.97F HX 102

$$

INZ062-063-066-070>080-084-089>092-232200-
SOUTH CENTRAL AND SOUTHEAST INDIANA

CITY           SKY/WX    TMP DP  RH WIND       PRES   REMARKS
BLOOMINGTON    PTSUNNY   90  73  57 CALM      29.99F HX  98
MADISON *+     MOSUNNY   90  70  51 NW5       30.01F HX  95
SEYMOUR +      PTSUNNY   93  73  52 CALM      29.98  HX 102

$$





USA.gov is the U.S. government's official web portal to all federal, state and local government web resources and services.